| time (UTC) | temp F | wind direction | speed MPH | gust MPH | rain 1hr in | rain 24hr in | rain mn in | humidity % | barometer mb |
| 20260505011003 | 71 | 235 | 2.0 | 15.0 | 0.00 | 0.08 | 0.08 | 46 | 1002.2 |
| 20260505010503 | 71 | 227 | 3.0 | 15.0 | 0.00 | 0.08 | 0.08 | 46 | 1002.1 |
| 20260505010004 | 71 | 219 | 3.0 | 15.0 | 0.00 | 0.08 | 0.08 | 46 | 1002.0 |
| 20260505005504 | 71 | 214 | 2.0 | 12.0 | 0.00 | 0.08 | 0.08 | 46 | 1001.9 |
| 20260505005004 | 71 | 221 | 3.0 | 12.0 | 0.00 | 0.08 | 0.08 | 46 | 1001.9 |
| 20260505004503 | 72 | 224 | 3.0 | 17.0 | 0.00 | 0.08 | 0.08 | 46 | 1001.9 |
| 20260505004003 | 72 | 216 | 2.0 | 17.0 | 0.00 | 0.08 | 0.08 | 46 | 1001.9 |
| 20260505003504 | 72 | 208 | 2.0 | 11.0 | 0.00 | 0.08 | 0.08 | 45 | 1001.8 |
| 20260505003004 | 72 | 208 | 2.0 | 12.0 | 0.00 | 0.08 | 0.08 | 45 | 1001.8 |
| 20260505002503 | 72 | 210 | 3.0 | 18.0 | 0.00 | 0.08 | 0.08 | 45 | 1001.7 |
| 20260505002004 | 73 | 217 | 4.0 | 21.0 | 0.00 | 0.08 | 0.08 | 44 | 1001.8 |
| 20260505001504 | 73 | 216 | 4.0 | 21.0 | 0.00 | 0.08 | 0.08 | 44 | 1001.8 |
| 20260505001003 | 73 | 209 | 2.0 | 13.0 | 0.00 | 0.08 | 0.08 | 44 | 1001.8 |
| 20260505000503 | 73 | 221 | 2.0 | 13.0 | 0.00 | 0.08 | 0.08 | 44 | 1001.8 |
| 20260505000004 | 73 | 212 | 5.0 | 20.0 | 0.00 | 0.08 | 0.08 | 43 | 1001.9 |
| 20260504235503 | 74 | 210 | 6.0 | 20.0 | 0.00 | 0.08 | 0.08 | 43 | 1001.9 |
| 20260504235004 | 74 | 217 | 4.0 | 18.0 | 0.00 | 0.08 | 0.08 | 42 | 1002.1 |
| 20260504234504 | 74 | 215 | 3.0 | 18.0 | 0.00 | 0.08 | 0.08 | 41 | 1002.2 |
| 20260504234003 | 74 | 226 | 3.0 | 13.0 | 0.00 | 0.08 | 0.08 | 41 | 1002.4 |
| 20260504233503 | 74 | 237 | 3.0 | 11.0 | 0.00 | 0.08 | 0.08 | 42 | 1002.4 |
| 20260504233004 | 74 | 239 | 4.0 | 16.0 | 0.00 | 0.08 | 0.08 | 42 | 1002.5 |
| 20260504232503 | 75 | 238 | 9.0 | 25.0 | 0.00 | 0.08 | 0.08 | 40 | 1002.6 |
| 20260504232004 | 75 | 231 | 9.0 | 25.0 | 0.00 | 0.08 | 0.08 | 39 | 1002.6 |
| 20260504231503 | 75 | 225 | 9.0 | 27.0 | 0.00 | 0.08 | 0.08 | 39 | 1002.6 |
| 20260504231004 | 75 | 227 | 8.0 | 27.0 | 0.00 | 0.08 | 0.08 | 38 | 1002.6 |
| 20260504230505 | 75 | 227 | 8.0 | 24.0 | 0.00 | 0.08 | 0.08 | 38 | 1002.8 |
| 20260504230004 | 75 | 230 | 7.0 | 24.0 | 0.00 | 0.08 | 0.08 | 38 | 1002.7 |
| 20260504225503 | 76 | 232 | 5.0 | 22.0 | 0.00 | 0.08 | 0.08 | 38 | 1002.8 |
| 20260504225003 | 76 | 234 | 8.0 | 24.0 | 0.00 | 0.08 | 0.08 | 38 | 1002.9 |
| 20260504224503 | 76 | 231 | 8.0 | 24.0 | 0.00 | 0.08 | 0.08 | 38 | 1003.0 |
| 20260504224004 | 76 | 229 | 6.0 | 22.0 | 0.00 | 0.08 | 0.08 | 39 | 1003.1 |
| 20260504223504 | 75 | 236 | 5.0 | 18.0 | 0.00 | 0.08 | 0.08 | 42 | 1003.1 |
| 20260504223003 | 75 | 239 | 4.0 | 16.0 | 0.00 | 0.08 | 0.08 | 43 | 1003.0 |
| 20260504222505 | 75 | 240 | 5.0 | 17.0 | 0.00 | 0.08 | 0.08 | 45 | 1003.1 |
| 20260504222005 | 75 | 223 | 6.0 | 18.0 | 0.00 | 0.08 | 0.08 | 45 | 1003.0 |
| 20260504221504 | 75 | 210 | 6.0 | 18.0 | 0.00 | 0.08 | 0.08 | 46 | 1003.1 |
| 20260504221003 | 74 | 206 | 5.0 | 19.0 | 0.00 | 0.08 | 0.08 | 51 | 1003.1 |
| 20260504220503 | 74 | 202 | 5.0 | 19.0 | 0.00 | 0.08 | 0.08 | 51 | 1003.2 |
| 20260504220005 | 74 | 198 | 4.0 | 17.0 | 0.00 | 0.08 | 0.08 | 53 | 1003.3 |
| 20260504215504 | 74 | 204 | 3.0 | 13.0 | 0.00 | 0.08 | 0.08 | 54 | 1003.3 |
| 20260504215004 | 74 | 200 | 2.0 | 13.0 | 0.00 | 0.08 | 0.08 | 54 | 1003.4 |
| 20260504214503 | 74 | 197 | 2.0 | 11.0 | 0.00 | 0.08 | 0.08 | 55 | 1003.4 |
| 20260504214003 | 74 | 204 | 2.0 | 16.0 | 0.00 | 0.08 | 0.08 | 55 | 1003.3 |
| 20260504213504 | 73 | 206 | 2.0 | 16.0 | 0.00 | 0.08 | 0.08 | 54 | 1003.4 |
| 20260504213004 | 73 | 184 | 2.0 | 13.0 | 0.00 | 0.08 | 0.08 | 56 | 1003.5 |
| 20260504212503 | 73 | 197 | 2.0 | 13.0 | 0.00 | 0.08 | 0.08 | 56 | 1003.6 |
| 20260504212003 | 72 | 208 | 2.0 | 12.0 | 0.00 | 0.08 | 0.08 | 58 | 1003.6 |
| 20260504211504 | 72 | 203 | 2.0 | 13.0 | 0.00 | 0.08 | 0.08 | 59 | 1003.6 |
| 20260504211003 | 71 | 199 | 1.0 | 13.0 | 0.00 | 0.08 | 0.08 | 63 | 1003.7 |
| 20260504210505 | 70 | 199 | 1.0 | 7.0 | 0.00 | 0.08 | 0.08 | 68 | 1003.9 |
| 20260504210004 | 69 | 197 | 1.0 | 8.0 | 0.00 | 0.08 | 0.08 | 69 | 1004.1 |
| 20260504205503 | 68 | 196 | 0.0 | 8.0 | 0.00 | 0.08 | 0.08 | 71 | 1004.2 |
| 20260504205004 | 68 | 168 | 1.0 | 9.0 | 0.00 | 0.08 | 0.08 | 72 | 1004.3 |
| 20260504204504 | 68 | 185 | 3.0 | 9.0 | 0.00 | 0.08 | 0.08 | 73 | 1004.3 |
| 20260504204004 | 67 | 201 | 4.0 | 9.0 | 0.00 | 0.08 | 0.08 | 73 | 1004.3 |
| 20260504203505 | 67 | 211 | 4.0 | 10.0 | 0.01 | 0.08 | 0.08 | 73 | 1004.4 |
| 20260504203003 | 67 | 211 | 5.0 | 11.0 | 0.01 | 0.08 | 0.08 | 72 | 1004.5 |
| 20260504202503 | 66 | 207 | 5.0 | 11.0 | 0.01 | 0.08 | 0.08 | 72 | 1004.6 |
| 20260504202004 | 66 | 204 | 5.0 | 12.0 | 0.01 | 0.08 | 0.08 | 73 | 1004.8 |
| 20260504201504 | 66 | 199 | 5.0 | 12.0 | 0.01 | 0.08 | 0.08 | 73 | 1004.7 |
| 20260504201003 | 66 | 184 | 5.0 | 12.0 | 0.01 | 0.08 | 0.08 | 72 | 1004.2 |
| 20260504200504 | 66 | 200 | 5.0 | 15.0 | 0.01 | 0.08 | 0.08 | 72 | 1004.2 |
| 20260504200005 | 66 | 220 | 5.0 | 15.0 | 0.01 | 0.08 | 0.08 | 71 | 1004.8 |
| 20260504195504 | 66 | 220 | 7.0 | 16.0 | 0.01 | 0.08 | 0.08 | 71 | 1005.2 |
| 20260504195005 | 66 | 215 | 9.0 | 19.0 | 0.01 | 0.08 | 0.08 | 67 | 1005.2 |
| 20260504194504 | 67 | 219 | 9.0 | 19.0 | 0.01 | 0.08 | 0.08 | 65 | 1005.0 |
| 20260504194003 | 67 | 230 | 8.0 | 18.0 | 0.01 | 0.08 | 0.08 | 62 | 1005.5 |
| 20260504193503 | 67 | 236 | 7.0 | 17.0 | 0.00 | 0.07 | 0.07 | 58 | 1005.5 |
| 20260504193004 | 67 | 244 | 6.0 | 17.0 | 0.00 | 0.07 | 0.07 | 57 | 1005.2 |
| 20260504192503 | 67 | 249 | 4.0 | 13.0 | 0.00 | 0.07 | 0.07 | 57 | 1004.8 |
| 20260504192003 | 68 | 242 | 4.0 | 10.0 | 0.00 | 0.07 | 0.07 | 59 | 1004.6 |
| 20260504191504 | 68 | 237 | 3.0 | 10.0 | 0.00 | 0.07 | 0.07 | 58 | 1004.8 |
| 20260504191003 | 68 | 243 | 4.0 | 9.0 | 0.00 | 0.07 | 0.07 | 57 | 1004.9 |
| 20260504190505 | 68 | 241 | 6.0 | 15.0 | 0.00 | 0.07 | 0.07 | 56 | 1005.0 |
| 20260504190004 | 68 | 237 | 8.0 | 18.0 | 0.00 | 0.07 | 0.07 | 53 | 1005.0 |
| 20260504185504 | 68 | 230 | 7.0 | 18.0 | 0.00 | 0.07 | 0.07 | 53 | 1005.0 |
| 20260504185005 | 68 | 236 | 7.0 | 14.0 | 0.00 | 0.07 | 0.07 | 54 | 1005.0 |
| 20260504184504 | 68 | 248 | 9.0 | 22.0 | 0.00 | 0.07 | 0.07 | 53 | 1005.4 |
| 20260504184005 | 68 | 244 | 9.0 | 22.0 | 0.00 | 0.07 | 0.07 | 52 | 1005.3 |
| 20260504183503 | 69 | 235 | 7.0 | 15.0 | 0.00 | 0.07 | 0.07 | 53 | 1005.6 |
| 20260504183003 | 69 | 238 | 7.0 | 16.0 | 0.00 | 0.07 | 0.07 | 54 | 1005.6 |
| 20260504182504 | 69 | 242 | 7.0 | 18.0 | 0.00 | 0.07 | 0.07 | 54 | 1005.7 |
| 20260504182003 | 69 | 245 | 9.0 | 18.0 | 0.00 | 0.07 | 0.07 | 54 | 1005.9 |
| 20260504181503 | 70 | 245 | 11.0 | 25.0 | 0.00 | 0.07 | 0.07 | 53 | 1005.9 |
| 20260504181005 | 70 | 250 | 12.0 | 25.0 | 0.00 | 0.07 | 0.07 | 52 | 1005.7 |
| 20260504180503 | 70 | 256 | 10.0 | 24.0 | 0.00 | 0.07 | 0.07 | 52 | 1006.0 |
| 20260504180005 | 71 | 251 | 9.0 | 19.0 | 0.00 | 0.07 | 0.07 | 51 | 1005.7 |
| 20260504175504 | 71 | 246 | 8.0 | 17.0 | 0.00 | 0.07 | 0.07 | 51 | 1005.7 |
| 20260504175004 | 71 | 241 | 7.0 | 16.0 | 0.00 | 0.07 | 0.07 | 51 | 1005.4 |
| 20260504174503 | 71 | 238 | 7.0 | 17.0 | 0.00 | 0.07 | 0.07 | 51 | 1005.3 |
| 20260504174004 | 71 | 234 | 8.0 | 17.0 | 0.00 | 0.07 | 0.07 | 53 | 1005.4 |
| 20260504173503 | 71 | 235 | 8.0 | 22.0 | 0.00 | 0.07 | 0.07 | 51 | 1005.4 |
| 20260504173003 | 71 | 238 | 7.0 | 22.0 | 0.00 | 0.07 | 0.07 | 50 | 1005.3 |
| 20260504172505 | 72 | 236 | 8.0 | 19.0 | 0.00 | 0.07 | 0.07 | 49 | 1005.4 |
| 20260504172004 | 72 | 226 | 7.0 | 18.0 | 0.00 | 0.07 | 0.07 | 49 | 1005.4 |
| 20260504171504 | 72 | 204 | 6.0 | 18.0 | 0.00 | 0.07 | 0.07 | 51 | 1005.2 |
| 20260504171003 | 72 | 208 | 5.0 | 15.0 | 0.00 | 0.07 | 0.07 | 51 | 1005.0 |
| 20260504170503 | 72 | 231 | 5.0 | 12.0 | 0.00 | 0.07 | 0.07 | 54 | 1004.9 |
| 20260504151005 | 70 | 241 | 6.0 | 13.0 | 0.00 | 0.07 | 0.07 | 56 | 1006.5 |
| 20260504150505 | 69 | 242 | 5.0 | 11.0 | 0.00 | 0.07 | 0.07 | 59 | 1006.4 |
| 20260504141004 | 62 | 249 | 6.0 | 13.0 | 0.07 | 0.07 | 0.07 | 66 | 1006.9 |
| 20260504140504 | 62 | 252 | 5.0 | 13.0 | 0.07 | 0.07 | 0.07 | 67 | 1007.0 |
| 20260504130503 | 56 | 253 | 3.0 | 9.0 | 0.00 | 0.00 | 0.00 | 77 | 1006.9 |
| 20260504110503 | 48 | 200 | 1.0 | 4.0 | 0.00 | 0.00 | 0.00 | 79 | 1006.7 |
| 20260504100504 | 47 | 200 | 1.0 | 4.0 | 0.00 | 0.00 | 0.00 | 79 | 1007.1 |
| 20260504082003 | 47 | 200 | 1.0 | 4.0 | 0.00 | 0.00 | 0.00 | 75 | 1007.8 |
| 20260504081504 | 48 | 200 | 1.0 | 4.0 | 0.00 | 0.00 | 0.00 | 74 | 1007.9 |
| 20260504081004 | 48 | 200 | 1.0 | 4.0 | 0.00 | 0.00 | 0.00 | 74 | 1007.8 |
| 20260504080504 | 48 | 200 | 1.0 | 4.0 | 0.00 | 0.00 | 0.00 | 74 | 1007.8 |
| 20260504050504 | 54 | 195 | 3.0 | 7.0 | 0.00 | 0.00 | 0.00 | 61 | 1009.3 |
| 20260504050003 | 54 | 197 | 4.0 | 7.0 | 0.00 | 0.00 | 0.00 | 61 | 1009.3 |
| 20260504045503 | 54 | 194 | 4.0 | 8.0 | 0.00 | 0.00 | 0.00 | 60 | 1009.4 |
| 20260504045003 | 55 | 190 | 3.0 | 8.0 | 0.00 | 0.00 | 0.00 | 60 | 1009.4 |
| 20260504044504 | 55 | 194 | 3.0 | 8.0 | 0.00 | 0.00 | 0.00 | 60 | 1009.4 |
| 20260504044003 | 55 | 201 | 4.0 | 8.0 | 0.00 | 0.00 | 0.00 | 60 | 1009.5 |
| 20260504043503 | 55 | 204 | 4.0 | 9.0 | 0.00 | 0.00 | 0.00 | 60 | 1009.6 |
| 20260504043003 | 55 | 203 | 4.0 | 9.0 | 0.00 | 0.00 | 0.00 | 60 | 1009.5 |
| 20260504042503 | 55 | 206 | 4.0 | 10.0 | 0.00 | 0.00 | 0.00 | 60 | 1009.6 |
| 20260504042004 | 55 | 207 | 4.0 | 11.0 | 0.00 | 0.00 | 0.00 | 60 | 1009.6 |
| 20260504041504 | 55 | 203 | 4.0 | 11.0 | 0.00 | 0.00 | 0.00 | 60 | 1009.6 |
| 20260504041003 | 55 | 192 | 4.0 | 9.0 | 0.00 | 0.00 | 0.00 | 60 | 1009.6 |
| 20260504040503 | 55 | 189 | 4.0 | 9.0 | 0.00 | 0.00 | 0.00 | 60 | 1009.7 |
| 20260504040003 | 55 | 199 | 5.0 | 9.0 | 0.00 | 0.00 | 0.00 | 60 | 1009.7 |
| 20260504035505 | 55 | 202 | 4.0 | 9.0 | 0.00 | 0.00 | 0.00 | 60 | 1009.8 |
| 20260504035004 | 55 | 199 | 3.0 | 8.0 | 0.00 | 0.00 | 0.00 | 60 | 1009.9 |
| 20260504034503 | 55 | 198 | 4.0 | 8.0 | 0.00 | 0.00 | 0.00 | 60 | 1009.9 |
| 20260504034003 | 55 | 192 | 4.0 | 9.0 | 0.00 | 0.00 | 0.00 | 60 | 1010.0 |
| 20260504033504 | 55 | 189 | 4.0 | 9.0 | 0.00 | 0.00 | 0.00 | 60 | 1010.0 |
| 20260504033003 | 55 | 201 | 4.0 | 9.0 | 0.00 | 0.00 | 0.00 | 59 | 1010.0 |
| 20260504032504 | 55 | 200 | 5.0 | 9.0 | 0.00 | 0.00 | 0.00 | 59 | 1010.0 |
| 20260504032003 | 55 | 193 | 4.0 | 11.0 | 0.00 | 0.00 | 0.00 | 59 | 1010.0 |
| 20260504031503 | 56 | 201 | 4.0 | 11.0 | 0.00 | 0.00 | 0.00 | 58 | 1010.0 |
| 20260504031004 | 56 | 204 | 4.0 | 10.0 | 0.00 | 0.00 | 0.00 | 58 | 1010.1 |
| 20260504030503 | 56 | 203 | 4.0 | 10.0 | 0.00 | 0.00 | 0.00 | 57 | 1010.1 |
| 20260504030005 | 56 | 207 | 4.0 | 8.0 | 0.00 | 0.00 | 0.00 | 57 | 1010.1 |
| 20260504025504 | 56 | 213 | 4.0 | 8.0 | 0.00 | 0.00 | 0.00 | 57 | 1010.1 |
| 20260504025005 | 56 | 215 | 4.0 | 8.0 | 0.00 | 0.00 | 0.00 | 57 | 1010.1 |
| 20260504024503 | 56 | 208 | 4.0 | 8.0 | 0.00 | 0.00 | 0.00 | 57 | 1010.2 |
| 20260504024003 | 56 | 199 | 3.0 | 7.0 | 0.00 | 0.00 | 0.00 | 56 | 1010.1 |
| 20260504023503 | 56 | 199 | 3.0 | 9.0 | 0.00 | 0.00 | 0.00 | 56 | 1010.1 |
| 20260504023005 | 56 | 200 | 4.0 | 9.0 | 0.00 | 0.00 | 0.00 | 56 | 1010.1 |
| 20260504022504 | 57 | 205 | 4.0 | 9.0 | 0.00 | 0.00 | 0.00 | 56 | 1010.0 |
| 20260504022003 | 57 | 202 | 4.0 | 10.0 | 0.00 | 0.00 | 0.00 | 55 | 1010.0 |
| 20260504021503 | 57 | 200 | 4.0 | 10.0 | 0.00 | 0.00 | 0.00 | 55 | 1010.0 |
| 20260504021004 | 57 | 199 | 4.0 | 10.0 | 0.00 | 0.00 | 0.00 | 55 | 1010.0 |
| 20260504020504 | 57 | 196 | 4.0 | 9.0 | 0.00 | 0.00 | 0.00 | 54 | 1010.0 |
| 20260504020003 | 58 | 203 | 3.0 | 9.0 | 0.00 | 0.00 | 0.00 | 54 | 1010.0 |
| 20260504015503 | 58 | 208 | 3.0 | 6.0 | 0.00 | 0.00 | 0.00 | 53 | 1010.0 |
| 20260504015003 | 58 | 207 | 3.0 | 8.0 | 0.00 | 0.00 | 0.00 | 53 | 1010.0 |
| 20260504014504 | 58 | 205 | 4.0 | 8.0 | 0.00 | 0.00 | 0.00 | 53 | 1009.9 |
| 20260504014003 | 58 | 205 | 3.0 | 8.0 | 0.00 | 0.00 | 0.00 | 53 | 1010.0 |
| 20260504013503 | 58 | 209 | 3.0 | 9.0 | 0.00 | 0.00 | 0.00 | 53 | 1010.0 |
| 20260504013003 | 58 | 214 | 4.0 | 9.0 | 0.00 | 0.00 | 0.00 | 52 | 1010.0 |
| 20260504012505 | 59 | 226 | 3.0 | 10.0 | 0.00 | 0.00 | 0.00 | 52 | 1010.1 |
| 20260504012003 | 59 | 215 | 3.0 | 10.0 | 0.00 | 0.00 | 0.00 | 52 | 1010.1 |
| 20260504011504 | 59 | 200 | 4.0 | 9.0 | 0.00 | 0.00 | 0.00 | 52 | 1010.0 |